FW3620 Weather Reports


time (UTC)temp
F
wind
direction
speed
knots
gust
knots
rain 1hr
in
rain 24hr
in
rain mn
in
humidity
%
barometer
mb
20260504012230 63 212 0.0 0.0 0.00 0.00 0.00 49 1003.0
20260504011726 63 213 0.0 0.0 0.00 0.00 0.00 47 1002.9
20260504011223 64 233 0.0 0.0 0.00 0.00 0.00 47 1003.2
20260504010719 64 233 0.0 0.0 0.00 0.00 0.00 46 1003.1
20260504010215 65 233 0.0 0.0 0.00 0.00 0.00 45 1002.9
20260504005712 66 234 0.0 0.0 0.00 0.00 0.00 44 1002.9
20260504005209 66 233 0.0 0.0 0.00 0.00 0.00 43 1003.0
20260504004707 67 235 0.0 0.0 0.00 0.00 0.00 42 1002.9
20260504004203 67 240 0.0 0.0 0.00 0.00 0.00 43 1002.8
20260504003700 68 242 0.0 0.0 0.00 0.00 0.00 42 1002.8
20260504003157 68 229 0.0 0.0 0.00 0.00 0.00 40 1002.9
20260504002653 68 232 0.0 0.9 0.00 0.00 0.00 39 1002.9
20260504002151 69 239 0.0 0.0 0.00 0.00 0.00 40 1002.8
20260504001649 68 237 0.0 0.9 0.00 0.00 0.00 40 1002.6
20260504001144 69 231 2.6 2.6 0.00 0.00 0.00 41 1002.6
20260504000642 69 324 0.9 1.7 0.00 0.00 0.00 41 1002.8
20260504000139 69 242 0.9 1.7 0.00 0.00 0.00 41 1002.5
20260503235637 69 315 0.0 0.0 0.00 0.00 0.00 42 1002.6
20260503235133 69 242 0.9 0.9 0.00 0.00 0.00 40 1002.7
20260503234632 70 225 0.0 0.0 0.00 0.00 0.00 40 1002.6
20260503234130 70 206 2.6 4.3 0.00 0.00 0.00 39 1002.5
20260503233626 71 253 2.6 5.2 0.00 0.00 0.00 39 1002.6
20260503233122 71 226 0.0 0.9 0.00 0.00 0.00 40 1002.7
20260503232619 71 225 4.3 6.1 0.00 0.00 0.00 39 1002.5
20260503232116 71 267 4.3 5.2 0.00 0.00 0.00 39 1002.7
20260503231614 71 250 0.9 2.6 0.00 0.00 0.00 40 1002.6
20260503231111 70 242 2.6 4.3 0.00 0.00 0.00 39 1002.8
20260503230608 72 253 0.9 1.7 0.00 0.00 0.00 42 1002.6
20260503230105 71 252 3.5 5.2 0.00 0.00 0.00 39 1002.9
20260503225602 71 270 0.9 1.7 0.00 0.00 0.00 39 1002.8
20260503225056 71 228 4.3 6.1 0.00 0.00 0.00 40 1003.1
20260503224555 71 245 3.5 4.3 0.00 0.00 0.00 40 1002.7
20260503224052 69 221 0.9 1.7 0.00 0.00 0.00 42 1002.9
20260503223550 72 219 1.7 2.6 0.00 0.00 0.00 41 1003.1
20260503223045 71 239 0.0 0.9 0.00 0.00 0.00 41 1002.9
20260503222544 71 250 1.7 1.7 0.00 0.00 0.00 43 1003.2
20260503222041 71 217 2.6 5.2 0.00 0.00 0.00 42 1003.0
20260503221539 71 260 2.6 4.3 0.00 0.00 0.00 40 1002.9
20260503221036 70 241 4.3 6.1 0.00 0.00 0.00 40 1003.0
20260503220532 71 256 6.1 7.0 0.00 0.00 0.00 40 1002.9
20260503220029 71 297 3.5 4.3 0.00 0.00 0.00 41 1003.1
20260503215526 70 217 3.5 5.2 0.00 0.00 0.00 41 1003.1
20260503215023 70 312 6.1 9.6 0.00 0.00 0.00 44 1003.0
20260503214522 71 258 4.3 5.2 0.00 0.00 0.00 41 1003.0
20260503214018 71 224 4.3 6.1 0.00 0.00 0.00 41 1003.3
20260503213516 70 241 0.0 0.9 0.00 0.00 0.00 43 1003.3
20260503213013 70 193 6.1 7.8 0.00 0.00 0.00 42 1003.3
20260503212510 71 197 6.1 7.8 0.00 0.00 0.00 41 1003.2
20260503212008 71 198 2.6 5.2 0.00 0.00 0.00 41 1003.2
20260503211504 70 239 0.0 0.9 0.00 0.00 0.00 44 1003.1
20260503211000 70 249 0.0 0.9 0.00 0.00 0.00 44 1003.4
20260503210457 70 248 3.5 5.2 0.00 0.00 0.00 41 1003.7
20260503205952 69 192 4.3 6.1 0.00 0.00 0.00 42 1003.5
20260503205449 69 230 6.1 7.0 0.00 0.00 0.00 43 1003.4
20260503204945 69 269 6.1 9.6 0.00 0.00 0.00 43 1003.7
20260503204442 70 243 4.3 5.2 0.00 0.00 0.00 41 1003.8
20260503203939 69 226 1.7 2.6 0.00 0.00 0.00 45 1003.9
20260503203437 68 211 3.5 4.3 0.00 0.00 0.00 44 1003.8
20260503202933 68 226 4.3 6.1 0.00 0.00 0.00 43 1004.0
20260503202431 68 281 6.1 7.0 0.00 0.00 0.00 42 1004.1
20260503201924 68 215 3.5 6.1 0.00 0.00 0.00 42 1004.3
20260503201421 68 254 5.2 6.1 0.00 0.00 0.00 42 1004.1
20260503200918 68 253 6.1 8.7 0.00 0.00 0.00 43 1004.4
20260503200414 68 263 4.3 7.0 0.00 0.00 0.00 43 1004.3
20260503195911 68 263 0.9 1.7 0.00 0.00 0.00 46 1004.2
20260503195408 68 227 0.0 0.0 0.00 0.00 0.00 43 1004.4
20260503194905 67 312 4.3 6.1 0.00 0.00 0.00 45 1004.4
20260503194402 67 252 3.5 4.3 0.00 0.00 0.00 44 1004.7
20260503193857 68 247 3.5 7.8 0.00 0.00 0.00 42 1004.7
20260503193353 67 252 4.3 6.1 0.00 0.00 0.00 43 1004.6
20260503192849 66 271 5.2 7.8 0.00 0.00 0.00 43 1005.0
20260503192345 67 189 4.3 8.7 0.00 0.00 0.00 43 1004.9
20260503191841 67 274 4.3 5.2 0.00 0.00 0.00 43 1005.0
20260503191338 67 265 3.5 5.2 0.00 0.00 0.00 43 1004.9
20260503190835 68 211 2.6 7.0 0.00 0.00 0.00 43 1004.9
20260503190332 66 281 3.5 4.3 0.00 0.00 0.00 44 1005.0
20260503185829 67 261 3.5 4.3 0.00 0.00 0.00 44 1005.3
20260503185325 67 211 0.9 1.7 0.00 0.00 0.00 44 1005.0
20260503184820 67 191 5.2 7.8 0.00 0.00 0.00 43 1005.2
20260503184316 66 225 3.5 5.2 0.00 0.00 0.00 44 1005.4
20260503183812 66 250 0.0 0.0 0.00 0.00 0.00 45 1005.2
20260503183309 66 260 2.6 4.3 0.00 0.00 0.00 44 1005.1
20260503182806 65 222 4.3 7.0 0.00 0.00 0.00 45 1005.2
20260503182306 65 186 5.2 7.0 0.00 0.00 0.00 47 1005.3
20260503181756 67 151 7.8 13.0 0.00 0.00 0.00 45 1005.3
20260503181254 65 209 1.7 2.6 0.00 0.00 0.00 48 1005.4
20260503180750 65 273 6.1 9.6 0.00 0.00 0.00 48 1005.5
20260503180248 64 203 0.9 4.3 0.00 0.00 0.00 48 1005.6
20260503175744 65 274 3.5 5.2 0.00 0.00 0.00 48 1005.7
20260503175242 64 223 0.9 1.7 0.00 0.00 0.00 47 1005.7
20260503174738 63 190 1.7 2.6 0.00 0.00 0.00 49 1005.9
20260503174236 63 205 1.7 4.3 0.00 0.00 0.00 49 1006.1
20260503173730 62 204 0.9 1.7 0.00 0.00 0.00 51 1005.9
20260503173227 62 260 4.3 7.8 0.00 0.00 0.00 49 1006.1
20260503172724 62 280 3.5 6.1 0.00 0.00 0.00 48 1006.0
20260503172221 62 229 6.1 11.3 0.00 0.00 0.00 48 1006.3
20260503171717 63 217 7.0 8.7 0.00 0.00 0.00 47 1006.5
20260503171214 62 266 6.1 7.8 0.00 0.00 0.00 48 1006.3
20260503170712 62 184 2.6 4.3 0.00 0.00 0.00 47 1006.1
20260503170208 62 181 4.3 5.2 0.00 0.00 0.00 46 1006.4
20260503160130 61 277 2.6 4.3 0.00 0.00 0.00 58 1007.4
20260503150600 58 221 1.7 2.6 0.00 0.00 0.00 62 1007.8
20260503130943 52 236 2.6 4.3 0.00 0.00 0.00 65 1009.4
20260503130441 52 196 0.9 2.6 0.00 0.00 0.00 66 1009.5
20260503110326 50 202 2.6 4.3 0.00 0.00 0.00 55 1009.3
20260503100246 50 171 1.7 4.3 0.00 0.00 0.00 54 1010.0
20260503090206 47 244 1.7 2.6 0.00 0.00 0.00 56 1010.4
20260503081636 47 188 0.9 0.9 0.00 0.00 0.00 56 1010.6
20260503081133 47 211 0.0 0.9 0.00 0.00 0.00 56 1010.9
20260503080628 47 203 0.0 0.9 0.00 0.00 0.00 56 1010.9
20260503080126 47 244 0.0 0.0 0.00 0.00 0.00 57 1010.8
20260503072602 46 223 0.0 0.0 0.00 0.00 0.00 57 1011.2
20260503072100 46 215 0.0 0.0 0.00 0.00 0.00 57 1011.1
20260503071556 47 204 0.9 0.9 0.00 0.00 0.00 56 1010.9
20260503071053 47 208 3.5 5.2 0.00 0.00 0.00 55 1010.9
20260503070549 46 258 0.0 0.0 0.00 0.00 0.00 56 1011.4
20260503055003 48 229 0.0 0.9 0.00 0.00 0.00 51 1011.7
20260503054459 48 243 0.0 0.9 0.00 0.00 0.00 52 1011.9
20260503053956 47 222 0.0 0.0 0.00 0.00 0.00 52 1011.9
20260503053454 48 187 0.0 0.0 0.00 0.00 0.00 52 1011.9
20260503052951 48 214 0.0 0.9 0.00 0.00 0.00 51 1012.0
20260503052448 48 210 0.0 0.0 0.00 0.00 0.00 51 1012.1
20260503051944 48 212 0.0 0.0 0.00 0.00 0.00 51 1012.0
20260503051440 48 204 0.0 0.0 0.00 0.00 0.00 52 1012.0
20260503050938 48 231 0.0 0.9 0.00 0.00 0.00 50 1012.1
20260503050433 49 235 0.0 0.0 0.00 0.00 0.00 50 1012.2
20260503045931 48 222 0.0 0.0 0.00 0.00 0.00 50 1012.3
20260503045429 48 225 0.0 0.0 0.00 0.00 0.00 50 1012.2
20260503044925 49 221 0.0 0.0 0.00 0.00 0.00 50 1011.9
20260503044422 49 183 0.0 0.0 0.00 0.00 0.00 49 1012.1
20260503043920 49 280 0.0 0.0 0.00 0.00 0.00 49 1012.3
20260503043416 50 195 1.7 2.6 0.00 0.00 0.00 48 1012.1
20260503042913 49 213 0.0 0.0 0.00 0.00 0.00 48 1012.1
20260503042410 49 224 0.0 0.9 0.00 0.00 0.00 48 1012.2
20260503041906 49 232 0.0 0.0 0.00 0.00 0.00 49 1012.4
20260503041403 49 249 0.0 0.9 0.00 0.00 0.00 50 1012.5
20260503040900 49 221 0.0 0.0 0.00 0.00 0.00 49 1012.6
20260503040358 49 220 0.0 0.0 0.00 0.00 0.00 49 1012.5
20260503035854 49 216 0.0 0.0 0.00 0.00 0.00 50 1012.7
20260503035351 49 272 0.0 0.0 0.00 0.00 0.00 49 1012.5
20260503034848 48 226 0.0 0.9 0.00 0.00 0.00 49 1012.5
20260503034346 49 255 0.0 0.0 0.00 0.00 0.00 49 1012.5
20260503033843 49 271 0.0 0.9 0.00 0.00 0.00 48 1012.7
20260503033341 49 232 0.0 0.0 0.00 0.00 0.00 48 1012.6
20260503032838 49 221 0.0 0.0 0.00 0.00 0.00 48 1012.7
20260503032337 49 227 0.0 0.0 0.00 0.00 0.00 48 1012.8
20260503031834 49 259 0.0 0.0 0.00 0.00 0.00 48 1012.8
20260503031332 49 226 0.0 0.0 0.00 0.00 0.00 47 1013.0
20260503030828 49 237 0.0 0.0 0.00 0.00 0.00 48 1013.0
20260503030325 49 221 0.0 0.0 0.00 0.00 0.00 48 1013.0
20260503025821 49 220 0.0 0.0 0.00 0.00 0.00 48 1013.0
20260503025319 50 217 0.0 0.0 0.00 0.00 0.00 48 1012.9
20260503024816 50 218 0.0 0.0 0.00 0.00 0.00 48 1013.0
20260503024312 50 226 0.0 0.0 0.00 0.00 0.00 47 1013.1
20260503023809 50 217 0.0 0.0 0.00 0.00 0.00 46 1013.1
20260503023307 50 232 0.9 1.7 0.00 0.00 0.00 46 1013.1
20260503022803 50 216 0.0 0.0 0.00 0.00 0.00 47 1013.1
20260503022304 50 216 0.0 0.0 0.00 0.00 0.00 47 1012.9
20260503021800 50 216 0.0 0.0 0.00 0.00 0.00 46 1013.0
20260503021255 50 220 0.0 0.0 0.00 0.00 0.00 47 1012.9
20260503020754 50 228 0.0 0.0 0.00 0.00 0.00 46 1012.8
20260503020251 51 231 0.0 0.0 0.00 0.00 0.00 46 1013.0
20260503015747 51 223 0.0 0.0 0.00 0.00 0.00 45 1013.0
20260503015244 52 215 0.0 0.0 0.00 0.00 0.00 45 1012.8
20260503014740 52 222 0.0 0.0 0.00 0.00 0.00 44 1012.9
20260503014238 52 217 0.0 0.0 0.00 0.00 0.00 46 1012.7
20260503013735 52 210 0.0 0.9 0.00 0.00 0.00 44 1012.9
20260503013232 53 223 0.0 0.0 0.00 0.00 0.00 44 1012.8